Weather History for Gillette, WY

Change the Weather History Date:

Tuesday, October 23, 2012

  Actual Average Record
Temperature  
Mean Temperature 41 °F 43 °F  
Max Temperature 46 °F 56 °F 80 °F (2003)
Min Temperature 36 °F 29 °F 15 °F (1942)
Degree Days  
Heating Degree Days 24 22  
Month to date heating degree days 430 424  
Since 1 July heating degree days 588 719  
Cooling Degree Days 0 0  
Month to date cooling degree days 0 0  
Year to date cooling degree days 795 500  
Moisture  
Dew Point 40 °F    
Average Humidity 92    
Maximum Humidity 100    
Minimum Humidity 83    
Precipitation  
Precipitation 0.33 in 0.04 in 0.70 in (1925)
Month to date precipitation 0.89 1.06  
Year to date precipitation 8.47 12.73  
Sea Level Pressure  
Sea Level Pressure 29.76 in    
Wind  
Wind Speed 6 mph (NE)    
Max Wind Speed 20 mph    
Max Gust Speed 23 mph    
Visibility 8 miles    
Events Rain    
T = Trace of Precipitation, MM = Missing Value Source: NWS Daily Summary

Daily Weather History Graph

Daily Weather History Graph

Search for Another Location

Airport:

Trip Planner

Search our weather history database for the weather conditions in past years. The results will help you decide how hot, cold, wet, or windy it might be!

Date:

Astronomy

Oct. 23, 2012 Rise Set
Actual Time 7:28 AM MDT 6:04 PM MDT
Civil Twilight 6:58 AM MDT 6:33 PM MDT
Nautical Twilight 6:24 AM MDT 7:07 PM MDT
Astronomical Twilight 5:50 AM MDT 7:41 PM MDT
Moon 3:00 PM MDT (10/23) 1:09 AM MDT (10/23)
Length of Visible Light 11h 35m
Length of Day
10h 35m
Waxing Gibbous, 67% of the Moon is Illuminated
Oct 23
Waxing Gibbous
Oct 29
Full
Nov 6
Last Quarter
Nov 13
New
Nov 20
First Quarter

Hourly Weather History & Observations

Time (MDT) Temp. Windchill Dew Point Humidity Pressure Visibility Wind Dir Wind Speed Gust Speed Precip Events Conditions
12:53 AM 44.6 °F 37.4 °F 39.2 °F 81% 29.62 in 10.0 mi South 16.1 mph - N/A   Overcast
1:53 AM 42.1 °F 39.2 °F 39.9 °F 92% 29.60 in 10.0 mi NE 4.6 mph - 0.01 in   Mostly Cloudy
2:53 AM 42.1 °F 39.2 °F 41.0 °F 96% 29.60 in 10.0 mi ESE 4.6 mph - 0.00 in   Mostly Cloudy
3:53 AM 42.1 °F 39.2 °F 39.9 °F 92% 29.61 in 10.0 mi WSW 4.6 mph - 0.01 in Rain Light Rain
4:53 AM 41.0 °F 36.4 °F 39.0 °F 93% 29.58 in 10.0 mi SSE 6.9 mph - 0.01 in   Scattered Clouds
5:53 AM 39.9 °F 32.9 °F 37.9 °F 93% 29.58 in 10.0 mi South 11.5 mph - N/A   Partly Cloudy
6:53 AM 41.0 °F 35.8 °F 37.9 °F 89% 29.60 in 10.0 mi SSW 8.1 mph - N/A   Clear
7:53 AM 41.0 °F 35.2 °F 39.0 °F 93% 29.65 in 10.0 mi NW 9.2 mph - N/A   Mostly Cloudy
8:02 AM 42.8 °F 36.2 °F 41.0 °F 93% 29.65 in 10.0 mi NNW 12.7 mph - N/A   Overcast
8:53 AM 43.0 °F 36.8 °F 42.1 °F 97% 29.67 in 4.0 mi NNE 11.5 mph - N/A   Overcast
9:30 AM 42.8 °F 39.3 °F 42.8 °F 100% 29.71 in 10.0 mi NNE 5.8 mph - N/A   Overcast
9:53 AM 44.1 °F 41.5 °F 41.0 °F 89% 29.71 in 5.0 mi SE 4.6 mph - 0.00 in Rain Light Rain
10:30 AM 42.8 °F 40.1 °F 42.8 °F 100% 29.74 in 10.0 mi East 4.6 mph - 0.03 in   Overcast
10:53 AM 44.1 °F 42.5 °F 42.1 °F 93% 29.74 in 5.0 mi NE 3.5 mph - 0.06 in Rain Light Rain
11:04 AM 44.6 °F - 42.8 °F 93% 29.76 in 6.0 mi Calm Calm - N/A Rain Light Rain
11:15 AM 44.6 °F - 42.8 °F 93% 29.75 in 5.0 mi Calm Calm - 0.02 in Rain Light Rain
11:25 AM 42.8 °F 41.1 °F 42.8 °F 100% 29.75 in 5.0 mi NE 3.5 mph - 0.02 in Rain Light Rain
11:39 AM 42.8 °F - 42.8 °F 100% 29.76 in 4.0 mi Calm Calm - 0.03 in Rain Light Rain
11:46 AM 42.8 °F 40.1 °F 42.8 °F 100% 29.76 in 5.0 mi North 4.6 mph - 0.04 in Rain Light Rain
11:53 AM 44.1 °F 37.4 °F 42.1 °F 93% 29.75 in 10.0 mi NNW 13.8 mph - 0.04 in Rain Light Rain
12:04 PM 44.6 °F 38.4 °F 42.8 °F 93% 29.75 in 7.0 mi NNW 12.7 mph - N/A   Overcast
12:16 PM 44.6 °F 38.8 °F 42.8 °F 93% 29.76 in 6.0 mi NNW 11.5 mph - 0.00 in   Overcast
12:31 PM 44.6 °F 40.7 °F 42.8 °F 93% 29.77 in 10.0 mi North 6.9 mph - 0.00 in   Overcast
12:53 PM 44.1 °F 40.1 °F 42.1 °F 93% 29.76 in 4.0 mi NE 6.9 mph - 0.00 in   Overcast
1:09 PM 44.6 °F 40.7 °F 42.8 °F 93% 29.76 in 10.0 mi ESE 6.9 mph - 0.01 in   Overcast
1:17 PM 44.6 °F 41.4 °F 42.8 °F 93% 29.76 in 10.0 mi SE 5.8 mph - 0.01 in   Overcast
1:53 PM 46.0 °F 43.9 °F 43.0 °F 89% 29.76 in 10.0 mi East 4.6 mph - 0.01 in Rain Light Rain
2:45 PM 44.6 °F 43.1 °F 42.8 °F 93% 29.79 in 2.5 mi WSW 3.5 mph - 0.02 in Rain Rain
2:53 PM 44.1 °F 39.5 °F 39.0 °F 82% 29.80 in 1.8 mi West 8.1 mph - 0.07 in Rain Rain
3:02 PM 39.2 °F 31.6 °F 37.4 °F 93% 29.81 in 2.0 mi NNW 12.7 mph 18.4 mph 0.05 in Rain Rain
3:17 PM 41.0 °F 38.0 °F 39.2 °F 93% 29.81 in 4.0 mi NNW 4.6 mph - 0.10 in Rain Light Rain
3:36 PM 42.8 °F 40.1 °F 39.2 °F 87% 29.80 in 10.0 mi ENE 4.6 mph - 0.12 in   Overcast
3:53 PM 42.1 °F - 39.0 °F 89% 29.81 in 10.0 mi Calm Calm - 0.12 in   Overcast
4:41 PM 42.8 °F 37.5 °F 41.0 °F 93% 29.83 in 10.0 mi NNE 9.2 mph - N/A   Overcast
4:53 PM 42.8 °F 37.0 °F 41.0 °F 93% 29.83 in 10.0 mi North 10.4 mph - N/A   Overcast
5:26 PM 41.0 °F 35.8 °F 39.2 °F 93% 29.84 in 10.0 mi NE 8.1 mph - N/A   Overcast
5:53 PM 41.0 °F 36.4 °F 39.9 °F 96% 29.86 in 10.0 mi NE 6.9 mph - N/A   Overcast
6:49 PM 37.4 °F 32.1 °F 37.4 °F 100% 29.85 in 10.0 mi NNE 6.9 mph - N/A   Overcast
6:53 PM 37.9 °F 32.7 °F 37.9 °F 100% 29.87 in 9.0 mi NE 6.9 mph - N/A   Overcast
7:53 PM 37.9 °F 33.5 °F 37.0 °F 97% 29.89 in 10.0 mi NE 5.8 mph - N/A   Overcast
8:22 PM 37.4 °F 31.4 °F 35.6 °F 93% 29.85 in 10.0 mi NNE 8.1 mph - N/A   Overcast
8:53 PM 37.0 °F 31.0 °F 36.0 °F 96% 29.87 in 10.0 mi NE 8.1 mph - N/A   Overcast
9:53 PM 37.0 °F 32.4 °F 36.0 °F 96% 29.89 in 7.0 mi NE 5.8 mph - N/A   Overcast
10:53 PM 37.0 °F 33.3 °F 36.0 °F 96% 29.87 in 4.0 mi NNE 4.6 mph - N/A   Overcast
11:46 PM 37.4 °F 33.8 °F 37.4 °F 100% 29.85 in 2.5 mi East 4.6 mph - N/A   Overcast
11:53 PM 37.0 °F - 37.0 °F 100% 29.87 in 2.5 mi Calm Calm - N/A   Overcast